Home   Weather   Phuket   Past weeks

Flag for Thailand Past Weather in Phuket, Thailand — Yesterday and Last 2 Weeks

Now
84 °F

Passing clouds.


Feels Like: 92 °F
Forecast: 80 / 85 °F
Wind: 15 mph from West

Location: Phuket Airport

Current Time: Sep 26, 2016 at 9:07:47 PM

Latest Report: Sep 26, 2016 at 8:30 PM


Visibility: 4 mi

Pressure: 29.86 "Hg

Humidity: 74%

Dew Point: 75 °F

Location of PhuketLocation

Past Weather in Phuket — Graph

°F

Phuket Temperature Yesterday

Maximum temperature yesterday: 88 °F (at 11:30 AM)
Minimum temperature yesterday: 81 °F (at 6:00 AM)
Average temperature yesterday: 84 °F

High & Low Weather Summary for the Past Weeks

 TemperatureHumidityPressure
High88 °F (Sep 14, 10:30 AM)94% (Sep 13, 7:30 AM)29.95 "Hg (Sep 13, 7:30 AM)
Low75 °F (Sep 12, 7:30 AM)62% (Sep 15, 2:30 PM)29.74 "Hg (Sep 23, 4:00 PM)
Average82 °F78%29.85 "Hg
* Reported Sep 11 8:00 PM — Sep 26 8:00 PM, Phuket, Weather by CustomWeather, © 2016

Note: Actual official high and low records may vary slightly from our data, if they occured in-between our weather recording intervals... More about our weather records

Advertising

Phuket Weather History for the Previous 24 Hours

Scroll right to see more
 ConditionsComfort  
Time TempWeatherWind HumidityBarometerVisibility
8:00 PM
Mon, Sep 26
84 °FPartly cloudy.14 mph74%29.83 "Hg4 mi
7:30 PM84 °FPartly cloudy.14 mph74%29.83 "Hg4 mi
7:00 PM82 °FPartly cloudy.12 mph79%29.83 "Hg4 mi
6:30 PM84 °FPartly cloudy.14 mph70%29.80 "Hg5 mi
6:00 PM84 °FBroken clouds.14 mph74%29.80 "Hg5 mi
5:30 PM84 °FBroken clouds.13 mph74%29.80 "Hg5 mi
5:00 PM84 °FBroken clouds.16 mph70%29.80 "Hg5 mi
4:30 PM84 °FBroken clouds.17 mph74%29.80 "Hg5 mi
4:00 PM84 °FBroken clouds.21 mph74%29.80 "Hg5 mi
3:30 PM86 °FBroken clouds.18 mph66%29.80 "Hg5 mi
3:00 PM86 °FScattered showers. Broken clouds.17 mph66%29.80 "Hg5 mi
2:30 PM86 °FScattered showers. Broken clouds.20 mph70%29.80 "Hg5 mi
2:00 PM86 °FScattered showers. Broken clouds.17 mph70%29.83 "Hg5 mi
1:30 PM88 °FBroken clouds.15 mph66%29.83 "Hg5 mi
1:00 PM88 °FBroken clouds.18 mph66%29.86 "Hg5 mi
12:30 PM88 °FBroken clouds.17 mph66%29.86 "Hg5 mi
12:00 PM88 °FBroken clouds.20 mph66%29.89 "Hg5 mi
11:30 AM88 °FBroken clouds.15 mph66%29.89 "Hg5 mi
11:00 AM86 °FBroken clouds.16 mph70%29.89 "Hg5 mi
10:30 AM88 °FBroken clouds.15 mph66%29.89 "Hg5 mi
10:00 AM86 °FBroken clouds.14 mph70%29.89 "Hg5 mi
9:30 AM86 °FBroken clouds.16 mph70%29.89 "Hg5 mi
9:00 AM84 °FBroken clouds.16 mph74%29.89 "Hg5 mi
8:30 AM86 °FBroken clouds.17 mph70%29.89 "Hg5 mi
8:00 AM84 °FBroken clouds.12 mph74%29.86 "Hg4 mi
7:30 AM82 °FBroken clouds.12 mph74%29.86 "Hg4 mi
7:00 AM82 °FFog.12 mph74%29.86 "Hg3 mi
6:30 AM82 °FFog.12 mph74%29.83 "Hg3 mi
6:00 AM82 °FFog.8 mph74%29.83 "Hg3 mi
5:30 AM82 °FFog.7 mph74%29.80 "Hg3 mi
5:00 AM82 °FFog.8 mph79%29.80 "Hg3 mi
3:30 AM82 °FFog.12 mph74%29.80 "Hg3 mi
3:00 AM82 °FFog.12 mph74%29.80 "Hg3 mi
2:30 AM82 °FFog.12 mph74%29.83 "Hg3 mi
2:00 AM82 °FFog.9 mph79%29.83 "Hg3 mi
1:30 AM82 °FFog.12 mph79%29.83 "Hg3 mi
1:00 AM82 °FPartly cloudy.12 mph79%29.86 "Hg4 mi
12:30 AM82 °FPartly cloudy.13 mph79%29.86 "Hg4 mi
12:00 AM82 °FPartly cloudy.17 mph79%29.89 "Hg4 mi
11:30 PM
Sun, Sep 25
82 °FPartly cloudy.17 mph79%29.89 "Hg4 mi
11:00 PM82 °FPartly cloudy.12 mph79%29.89 "Hg4 mi
10:30 PM82 °FPartly cloudy.13 mph84%29.89 "Hg4 mi
10:00 PM81 °FRain. Partly cloudy.17 mph84%29.86 "Hg2 mi
9:30 PM82 °FLight rain. Partly cloudy.17 mph79%29.86 "Hg4 mi
9:00 PM82 °FPartly cloudy.17 mph79%29.86 "Hg4 mi
Weather by CustomWeather, © 2016

See weather overviewHow to use our weather pages